Regional Weather Roundup
Issued by NWS Kansas City/Pleasant Hill, MO

Home | Current Version | Previous Version | Text Only | Print | Product List | Glossary On
Versions: 1 2 3 4 5 6 7 8 9 10 11 12 13 14 15 16 17 18 19 20 21 22 23 24 25 26 27
000
ASUS43 KEAX 260810
RWREAX

WEATHER ROUNDUP FOR EASTERN KANSAS AND NORTHWEST MISSOURI
NATIONAL WEATHER SERVICE KANSAS CITY/PLEASANT HILL MO
300 AM CDT FRI AUG 26 2016

KSZ040-057-103>105-MOZ028-029-037-043-260900-
...KANSAS CITY METROPOLITAN AREA...

CITY           SKY/WX    TMP DP  RH WIND       PRES   REMARKS
K.C. INTL      LGT RAIN  69  64  84 NE7       30.11R
K.C. DOWNTOWN  LGT RAIN  71  68  90 E7        30.08S
LEES SUMMIT    TSTM      70  70 100 E5        30.11R
OLATHE - IXD   RAIN      71  70  96 N6        30.10R FOG
OLATHE - OJC   RAIN      70  67  90 NW6       30.09S FOG
LAWRENCE       CLOUDY    69  68  96 N5        30.09R THUNDER FOG

$$

MOZ001>008-011>017-020>025-030>033-038>040-044>046-053-054-260900-
...NORTHERN AND CENTRAL MISSOURI...

CITY           SKY/WX    TMP DP  RH WIND       PRES   REMARKS
ST. JOSEPH     CLOUDY    68  63  84 NE9       30.11S HAZE
MOSBY          FAIR      68  66  94 E5        30.10R
WHITEMAN AFB   CLOUDY    71  71 100 N7        30.09R
CLINTON        FAIR      68  68 100 CALM      30.09R
SEDALIA        CLOUDY    73  71  93 NW7       30.10R
WARSAW         NOT AVBL
CHILLICOTHE    NOT AVBL
KIRKSVILLE     MOCLDY    68  65  90 NE5       30.12S

$$

MOZ041-047>049-056>058-063>065-088>090-097-260900-
...EASTERN AND SOUTHERN MISSOURI...

CITY           SKY/WX    TMP DP  RH WIND       PRES   REMARKS
ST. LOUIS INTL FAIR      77  70  79 SE7       30.06F
SPIRIT OF STL  FAIR      73  72  96 CALM      30.04F
COLUMBIA       FAIR      73  72  96 NE6       30.07F
JEFFERSON CITY FAIR      73  71  93 CALM      30.06S
ROLLA          FAIR      71  68  90 CALM      30.07F
OSAGE BEACH    FAIR      69  68  96 N3        30.07F
SPRINGFIELD    FAIR      73  68  84 S7        30.07S
BRANSON          N/A     70  68  94 CALM      30.09R
JOPLIN         FAIR      72  68  87 S10       30.07S
WEST PLAINS    FAIR      75  71  87 CALM      30.09F

$$

IAZ060-094-KSZ022-034>040-054-083-096-NEZ052-066-093-260900-
...KANSAS...SOUTHEAST NEBRASKA AND IOWA...

CITY           SKY/WX    TMP DP  RH WIND       PRES   REMARKS
TOPEKA         LGT RAIN  70  65  84 NE5       30.08F
MANHATTAN      CLOUDY    67  62  84 N3        30.10R
EMPORIA        LGT RAIN  70  69  97 S8        30.10R
CHANUTE        LGT RAIN  68  66  93 N9        30.10F
WICHITA        TSTM      72  69  90 SE10      30.08R
OMAHA          FAIR      61  57  87 N8        30.14F
LINCOLN        FAIR      58  56  93 N5        30.15F
FALLS CITY     FAIR      64  62  93 CALM      30.12R
LAMONI         FAIR      62  62 100 NE5       30.13F
DES MOINES     MOCLDY    64  61  90 NW3       30.13S

$$





USA.gov is the U.S. government's official web portal to all federal, state and local government web resources and services.